GW4488 Weather Reports


time (UTC)temp
C
wind
direction
speed
KPH
gust
KPH
rain 1hr
cm
rain 24hr
cm
rain mn
cm
humidity
%
barometer
mb
20260509135243 10 258 3.2 6.4 0.13 0.51 0.51 99 1039.1
20260509134740 10 254 3.2 6.4 0.05 0.51 0.51 99 1039.2
20260509134238 10 250 3.2 6.4 0.05 0.51 0.51 99 1038.9
20260509133735 9 251 4.8 6.4 0.05 0.51 0.51 99 1039.1
20260509133231 9 233 4.8 4.8 0.05 0.48 0.48 99 1039.4
20260509132730 9 270 3.2 4.8 0.05 0.48 0.48 99 1039.2
20260509132228 9 257 3.2 4.8 0.05 0.48 0.48 99 1039.3
20260509131725 9 270 4.8 4.8 0.05 0.48 0.48 99 1039.4
20260509131221 9 255 3.2 4.8 0.05 0.46 0.46 99 1039.4
20260509130717 9 278 3.2 4.8 0.05 0.46 0.46 99 1039.2
20260509130213 8 285 3.2 4.8 0.05 0.46 0.46 99 1039.4
20260509125710 8 265 3.2 4.8 0.05 0.46 0.46 99 1039.3
20260509125207 8 270 3.2 4.8 0.13 0.46 0.46 99 1039.5
20260509124703 8 275 3.2 4.8 0.13 0.43 0.43 99 1039.4
20260509124200 8 266 4.8 4.8 0.05 0.43 0.43 99 1039.4
20260509123658 8 243 3.2 4.8 0.13 0.43 0.43 99 1039.4
20260509123155 8 270 3.2 3.2 0.13 0.43 0.43 99 1039.4
20260509122650 8 225 8.0 8.0 0.05 0.41 0.41 99 1039.5
20260509122148 8 265 3.2 4.8 0.13 0.41 0.41 99 1039.8
20260509121644 8 270 3.2 4.8 0.18 0.38 0.38 99 1039.4
20260509121142 8 275 3.2 6.4 0.23 0.38 0.38 99 1039.5
20260509120640 8 270 3.2 4.8 0.23 0.36 0.36 99 1039.4
20260509120138 7 232 6.4 9.7 0.23 0.33 0.33 99 1039.8
20260509115635 7 280 3.2 6.4 0.23 0.30 0.30 99 1039.6
20260509115133 7 279 3.2 4.8 0.23 0.28 0.28 99 1040.0
20260509114631 7 284 4.8 4.8 0.30 0.28 0.28 99 1040.0
20260509114129 7 275 3.2 4.8 0.23 0.25 0.25 99 1040.0
20260509113627 7 285 3.2 3.2 0.18 0.23 0.23 99 1039.8
20260509113124 7 286 3.2 3.2 0.18 0.20 0.20 99 1039.9
20260509112620 7 261 3.2 3.2 0.13 0.18 0.18 99 1039.8
20260509112118 7 291 0.0 3.2 0.13 0.18 0.18 99 1039.9
20260509111615 7 278 0.0 4.8 0.23 0.18 0.18 99 1039.8
20260509111112 7 257 1.6 3.2 0.23 0.15 0.15 99 1039.8
20260509110609 7 285 0.0 3.2 0.23 0.13 0.13 99 1039.8
20260509110106 7 276 1.6 3.2 0.23 0.10 0.10 99 1039.8
20260509105604 7 292 3.2 4.8 0.23 0.10 0.10 99 1039.8
20260509105101 7 287 3.2 6.4 0.18 0.08 0.08 99 1039.5
20260509104558 7 270 1.6 3.2 0.18 0.05 0.05 99 1039.8
20260509104055 7 276 1.6 4.8 0.05 0.03 0.03 99 1039.8
20260509103553 7 293 3.2 4.8 0.00 0.03 0.03 99 1039.6
20260509103051 7 289 3.2 4.8 0.00 0.03 0.03 99 1039.6
20260509102547 7 265 3.2 4.8 0.00 0.03 0.03 99 1039.3
20260509102045 6 283 1.6 4.8 0.00 0.03 0.03 99 1039.4
20260509101541 6 286 3.2 3.2 0.05 0.03 0.03 99 1039.6
20260509101038 6 276 1.6 4.8 0.05 0.03 0.03 99 1039.6
20260509100535 6 252 3.2 6.4 0.00 0.00 0.00 99 1039.6
20260509100032 6 255 3.2 4.8 0.00 0.00 0.00 99 1039.4
20260509095529 6 246 4.8 4.8 0.00 0.00 0.00 99 1039.5
20260509095026 6 275 3.2 4.8 0.00 0.00 0.00 99 1039.5
20260509094522 6 270 0.0 4.8 0.00 0.00 0.00 99 1039.4
20260509094020 6 270 3.2 3.2 0.00 0.00 0.00 99 1039.4
20260509093518 6 229 1.6 9.7 0.00 0.00 0.00 99 1039.3
20260509093015 6 285 3.2 4.8 0.00 0.00 0.00 99 1039.3
20260509092513 6 280 3.2 3.2 0.00 0.00 0.00 99 1039.3
20260509092012 6 286 3.2 3.2 0.00 0.00 0.00 99 1039.5
20260509091508 6 247 3.2 6.4 0.00 0.00 0.00 99 1039.6
20260509091005 6 191 1.6 4.8 0.00 0.00 0.00 99 1039.4
20260509090502 6 246 1.6 6.4 0.00 0.00 0.00 99 1039.6
20260509090000 6 210 3.2 8.0 0.00 0.00 0.00 99 1039.6
20260509085457 5 261 3.2 4.8 0.00 0.00 0.00 99 1039.4
20260509084953 5 260 3.2 4.8 0.00 0.00 0.00 99 1039.5
20260509084450 5 264 3.2 3.2 0.00 0.00 0.00 99 1039.8
20260509083947 5 270 3.2 3.2 0.00 0.00 0.00 99 1039.8
20260509083444 5 270 3.2 3.2 0.00 0.00 0.00 99 1039.9
20260509082941 5 275 3.2 4.8 0.00 0.00 0.00 99 1040.0
20260509082438 5 285 3.2 3.2 0.00 0.00 0.00 99 1039.8
20260509081935 5 270 3.2 3.2 0.00 0.00 0.00 99 1039.6
20260509081432 5 264 1.6 4.8 0.00 0.00 0.00 99 1039.8
20260509080929 5 270 1.6 6.4 0.00 0.00 0.00 99 1039.3
20260509080427 5 270 3.2 3.2 0.00 0.00 0.00 99 1039.9
20260509075925 5 251 3.2 4.8 0.00 0.00 0.00 99 1040.0
20260509075422 5 275 3.2 4.8 0.00 0.00 0.00 99 1040.1
20260509074920 5 253 3.2 3.2 0.00 0.00 0.00 99 1040.1
20260509074417 5 270 1.6 3.2 0.00 0.00 0.00 99 1040.1
20260509073913 5 270 3.2 3.2 0.00 0.00 0.00 99 1040.2
20260509073410 5 270 1.6 3.2 0.00 0.00 0.00 99 1040.3
20260509072906 5 261 3.2 4.8 0.00 0.00 0.00 99 1040.2
20260509072403 5 285 0.0 3.2 0.00 0.00 0.00 99 1040.5
20260509071859 5 276 1.6 3.2 0.00 0.00 0.00 99 1040.4
20260509071357 5 264 3.2 3.2 0.05 0.00 0.00 99 1040.2
20260509070854 5 263 1.6 4.8 0.05 0.00 0.00 99 1040.3
20260509070351 5 270 1.6 3.2 0.00 0.00 0.00 99 1040.4
20260509065846 5 270 1.6 3.2 0.00 0.00 0.00 99 1040.4
20260509065343 5 253 3.2 4.8 0.00 0.00 0.00 99 1040.4
20260509064839 5 254 0.0 4.8 0.00 0.00 0.00 99 1040.3
20260509064337 5 251 3.2 3.2 0.00 0.00 0.00 99 1040.4
20260509063834 4 251 1.6 3.2 0.00 0.00 0.00 99 1040.6
20260509063330 4 265 3.2 3.2 0.00 0.00 0.00 99 1040.6
20260509062828 4 257 1.6 4.8 0.00 0.00 0.00 99 1040.6
20260509062324 3 249 1.6 4.8 0.00 0.00 0.00 99 1040.7
20260509061822 3 270 3.2 4.8 0.00 0.00 0.00 99 1040.7
20260509061320 3 270 1.6 3.2 0.00 0.00 0.00 99 1040.8
20260509060816 3 270 1.6 3.2 0.00 0.00 0.00 99 1040.7
20260509060313 3 264 1.6 3.2 0.00 0.00 0.00 99 1041.0
20260509055808 3 283 4.8 4.8 0.00 0.00 0.00 99 1041.1
20260509055306 3 278 1.6 3.2 0.00 0.00 0.00 99 1040.9
20260509054801 3 270 1.6 3.2 0.00 0.00 0.00 99 1041.2
20260509054258 3 281 3.2 3.2 0.00 0.00 0.00 99 1041.2
20260509053757 3 263 1.6 3.2 0.00 0.00 0.00 99 1041.2
20260509053253 3 270 3.2 3.2 0.00 0.00 0.00 99 1041.2
20260509052751 3 276 3.2 3.2 0.00 0.00 0.00 99 1041.1
20260509052249 3 261 3.2 4.8 0.00 0.00 0.00 99 1041.2
20260509051746 3 270 3.2 3.2 0.00 0.00 0.00 99 1041.1
20260509051244 3 270 3.2 3.2 0.00 0.00 0.00 99 1041.3
20260509050740 2 270 0.0 3.2 0.00 0.00 0.00 99 1041.2
20260509050237 2 264 1.6 3.2 0.00 0.00 0.00 99 1041.2
20260509045735 2 254 3.2 3.2 0.00 0.00 0.00 99 1041.2
20260509045231 2 255 1.6 3.2 0.00 0.00 0.00 99 1041.2
20260509044729 2 257 3.2 4.8 0.00 0.00 0.00 99 1041.3
20260509044226 2 259 3.2 3.2 0.00 0.00 0.00 99 1041.5
20260509043722 2 277 0.0 3.2 0.00 0.00 0.00 99 1041.1
20260509043218 2 287 1.6 3.2 0.00 0.00 0.00 99 1041.2
20260509042715 1 267 4.8 4.8 0.00 0.00 0.00 99 1041.3
20260509042211 1 287 1.6 3.2 0.00 0.00 0.00 99 1041.1
20260509041708 2 233 3.2 3.2 0.00 0.00 0.00 99 1041.2
20260509041205 1 243 3.2 3.2 0.00 0.00 0.00 99 1041.0
20260509040703 2 270 1.6 3.2 0.00 0.00 0.00 99 1041.2
20260509040200 2 270 3.2 3.2 0.00 0.00 0.00 99 1041.4
20260509035656 2 261 3.2 3.2 0.00 0.15 0.15 99 1041.3
20260509035153 2 257 3.2 4.8 0.00 0.15 0.15 99 1041.5
20260509034651 2 270 3.2 3.2 0.00 0.15 0.15 99 1041.6
20260509034148 2 262 1.6 3.2 0.00 0.15 0.15 99 1041.4
20260509033645 2 243 3.2 3.2 0.00 0.15 0.15 99 1041.5
20260509033142 2 248 3.2 3.2 0.00 0.15 0.15 99 1041.5
20260509032639 2 270 3.2 3.2 0.00 0.15 0.15 99 1041.6
20260509032136 2 258 1.6 3.2 0.00 0.15 0.15 99 1041.5
20260509031634 2 246 0.0 4.8 0.00 0.15 0.15 99 1041.7
20260509031131 2 270 1.6 3.2 0.00 0.15 0.15 98 1041.4
20260509030629 2 265 3.2 3.2 0.00 0.15 0.15 98 1041.5
20260509030126 3 246 1.6 3.2 0.00 0.15 0.15 98 1041.6
20260509025622 3 260 3.2 4.8 0.00 0.15 0.15 97 1041.5
20260509025118 3 246 1.6 3.2 0.00 0.15 0.15 97 1041.4
20260509024613 3 275 3.2 6.4 0.00 0.15 0.15 97 1041.6
20260509024109 3 270 3.2 3.2 0.00 0.15 0.15 97 1041.6
20260509023608 3 249 1.6 4.8 0.00 0.15 0.15 97 1041.8
20260509023104 3 265 3.2 4.8 0.00 0.15 0.15 97 1041.7
20260509022600 3 261 4.8 4.8 0.00 0.15 0.15 97 1041.6
20260509022059 4 295 3.2 3.2 0.00 0.15 0.15 97 1041.5
20260509021555 4 264 3.2 3.2 0.00 0.15 0.15 96 1041.6
20260509021052 4 253 3.2 4.8 0.00 0.15 0.15 96 1041.8
20260509020551 5 262 0.0 3.2 0.00 0.15 0.15 95 1041.6
20260509020047 5 254 0.0 3.2 0.00 0.15 0.15 94 1041.7
20260509015547 5 282 1.6 3.2 0.00 0.15 0.15 93 1041.5
20260509015043 5 281 3.2 3.2 0.00 0.15 0.15 94 1041.6
20260509014540 6 258 1.6 4.8 0.00 0.15 0.15 94 1041.6
20260509014036 6 264 3.2 3.2 0.00 0.15 0.15 94 1041.6
20260509013533 6 270 1.6 3.2 0.00 0.15 0.15 94 1041.5
20260509013029 6 270 3.2 3.2 0.00 0.15 0.15 94 1041.7
20260509012526 6 270 3.2 3.2 0.00 0.15 0.15 94 1041.5
20260509012022 6 275 3.2 3.2 0.00 0.15 0.15 94 1041.2
20260509011520 5 261 3.2 3.2 0.00 0.15 0.15 94 1041.2
20260509011017 5 270 0.0 3.2 0.00 0.15 0.15 93 1041.0
20260509010515 5 266 3.2 4.8 0.00 0.15 0.15 93 1041.2
20260509010011 5 261 3.2 4.8 0.00 0.15 0.15 93 1041.1
20260509005510 5 260 3.2 3.2 0.00 0.15 0.15 93 1040.9
20260509005009 5 254 3.2 3.2 0.00 0.15 0.15 93 1040.9
20260509004506 5 270 3.2 3.2 0.00 0.15 0.15 92 1040.8
20260509004004 5 250 3.2 3.2 0.00 0.15 0.15 91 1040.8
20260509003502 6 270 3.2 3.2 0.00 0.15 0.15 91 1040.9
20260509002958 6 265 3.2 3.2 0.00 0.15 0.15 90 1040.8
20260509002456 6 251 3.2 3.2 0.00 0.15 0.15 91 1040.5
20260509001953 6 270 0.0 3.2 0.00 0.15 0.15 90 1040.6
20260509001450 6 254 3.2 3.2 0.00 0.15 0.15 89 1040.6
20260509000946 7 243 3.2 3.2 0.00 0.15 0.15 88 1040.5
20260509000447 7 265 3.2 3.2 0.00 0.15 0.15 87 1040.5
20260508235940 7 258 1.6 4.8 0.00 0.15 0.15 84 1040.5
20260508235439 7 270 3.2 3.2 0.00 0.15 0.15 84 1040.5
20260508234935 8 249 1.6 3.2 0.00 0.15 0.15 83 1040.4
20260508234432 8 270 3.2 3.2 0.00 0.15 0.15 81 1040.2
20260508233929 8 251 3.2 3.2 0.00 0.15 0.15 78 1040.3
20260508233429 8 264 1.6 3.2 0.00 0.15 0.15 78 1040.0
20260508232925 9 275 3.2 4.8 0.00 0.15 0.15 76 1040.2
20260508232422 9 270 3.2 4.8 0.00 0.15 0.15 75 1040.0
20260508231920 10 260 3.2 4.8 0.00 0.15 0.15 73 1039.9
20260508231416 10 254 3.2 4.8 0.00 0.15 0.15 72 1039.9
20260508230914 10 270 3.2 4.8 0.00 0.15 0.15 71 1040.2
20260508230410 11 277 4.8 4.8 0.00 0.15 0.15 67 1039.9
20260508225907 12 270 3.2 4.8 0.00 0.15 0.15 66 1040.1
20260508225403 12 261 3.2 6.4 0.00 0.15 0.15 58 1040.1
20260508224901 13 275 3.2 4.8 0.00 0.15 0.15 63 1040.2
20260508224358 13 263 4.8 6.4 0.00 0.15 0.15 60 1040.3
20260508223856 13 296 4.8 6.4 0.00 0.15 0.15 63 1040.2
20260508223354 12 276 4.8 6.4 0.00 0.15 0.15 66 1040.3
20260508222851 12 264 4.8 8.0 0.00 0.15 0.15 60 1040.3
20260508222348 12 266 3.2 6.4 0.00 0.15 0.15 62 1040.2
20260508221844 12 258 6.4 6.4 0.00 0.15 0.15 61 1040.1
20260508221340 13 270 3.2 4.8 0.00 0.15 0.15 57 1040.2
20260508220836 13 255 4.8 4.8 0.00 0.15 0.15 55 1040.0
20260508220333 14 312 3.2 4.8 0.00 0.15 0.15 58 1040.1
20260508215829 15 242 14.5 14.5 0.00 0.15 0.15 53 1040.2
20260508215326 15 255 4.8 4.8 0.00 0.15 0.15 52 1040.2
20260508214823 15 278 3.2 4.8 0.00 0.15 0.15 52 1040.3
20260508214320 13 296 4.8 6.4 0.00 0.15 0.15 60 1040.2
20260508213817 13 286 3.2 4.8 0.00 0.15 0.15 61 1040.3
20260508213314 13 257 0.0 3.2 0.00 0.15 0.15 53 1040.5
20260508212810 14 270 4.8 4.8 0.00 0.15 0.15 55 1040.2
20260508212306 14 292 3.2 6.4 0.00 0.15 0.15 57 1040.3
20260508211802 14 266 3.2 4.8 0.00 0.15 0.15 55 1040.3
20260508211258 15 262 0.0 4.8 0.00 0.15 0.15 53 1040.4
20260508210756 15 270 3.2 4.8 0.00 0.15 0.15 51 1040.2
20260508210252 13 275 3.2 4.8 0.00 0.15 0.15 55 1040.3
20260508205749 14 270 3.2 4.8 0.00 0.15 0.15 56 1040.2
20260508205245 13 315 3.2 4.8 0.00 0.15 0.15 57 1040.4
20260508204742 13 270 3.2 6.4 0.00 0.15 0.15 58 1040.6
20260508204238 13 290 3.2 11.3 0.00 0.15 0.15 56 1040.3
20260508203734 13 265 3.2 4.8 0.00 0.15 0.15 56 1040.5
20260508203231 13 255 4.8 9.7 0.00 0.15 0.15 52 1040.6
20260508202727 14 285 3.2 4.8 0.00 0.15 0.15 57 1040.5
20260508202224 14 297 3.2 6.4 0.00 0.15 0.15 52 1040.4
20260508201721 15 254 3.2 6.4 0.00 0.15 0.15 48 1040.7
20260508201217 15 304 4.8 8.0 0.00 0.15 0.15 52 1040.5
20260508200714 14 229 4.8 12.9 0.00 0.15 0.15 50 1040.6
20260508200211 13 303 3.2 8.0 0.00 0.15 0.15 51 1040.6
20260508195708 12 264 3.2 16.1 0.00 0.15 0.15 51 1040.9
20260508195204 13 285 3.2 8.0 0.00 0.15 0.15 54 1040.8
20260508194700 13 253 9.7 17.7 0.00 0.15 0.15 54 1040.8
20260508194157 15 285 1.6 8.0 0.00 0.15 0.15 50 1040.8
20260508193655 16 277 1.6 11.3 0.00 0.15 0.15 55 1041.0
20260508193151 16 270 1.6 4.8 0.00 0.15 0.15 50 1041.2
20260508192648 16 270 0.0 27.4 0.00 0.15 0.15 52 1041.2
20260508192145 16 265 3.2 11.3 0.00 0.15 0.15 53 1041.1
20260508191642 15 245 3.2 8.0 0.00 0.15 0.15 48 1041.1
20260508191138 15 313 4.8 11.3 0.00 0.15 0.15 51 1041.2
20260508190636 15 290 3.2 4.8 0.00 0.15 0.15 53 1041.1
20260508190132 13 253 3.2 8.0 0.00 0.15 0.15 55 1041.5
20260508185629 13 259 8.0 11.3 0.00 0.15 0.15 57 1041.5
20260508185127 15 289 4.8 4.8 0.00 0.15 0.15 51 1041.5
20260508184624 15 206 4.8 11.3 0.00 0.15 0.15 53 1041.4
20260508184121 14 292 3.2 12.9 0.00 0.15 0.15 56 1041.7
20260508183617 14 270 0.0 3.2 0.00 0.15 0.15 53 1041.8
20260508183113 13 186 1.6 8.0 0.00 0.15 0.15 57 1041.7
20260508182609 12 289 3.2 9.7 0.00 0.15 0.15 60 1041.9
20260508182106 13 287 4.8 8.0 0.00 0.15 0.15 65 1042.0
20260508181601 15 287 3.2 4.8 0.00 0.15 0.15 60 1042.1
20260508181059 13 279 3.2 3.2 0.00 0.15 0.15 69 1042.2
20260508180556 13 296 6.4 14.5 0.00 0.15 0.15 73 1042.0
20260508180052 11 245 3.2 4.8 0.00 0.15 0.15 70 1042.2
20260508175549 11 294 1.6 6.4 0.00 0.15 0.15 76 1042.5
20260508175046 10 294 8.0 8.0 0.00 0.15 0.15 74 1042.4
20260508174544 10 212 4.8 11.3 0.00 0.15 0.15 71 1042.4
20260508174040 10 286 3.2 9.7 0.00 0.15 0.15 75 1042.4
20260508173537 10 270 1.6 17.7 0.00 0.15 0.15 73 1042.4
20260508173033 10 252 8.0 12.9 0.00 0.15 0.15 70 1042.6
20260508172531 10 258 4.8 11.3 0.00 0.15 0.15 73 1042.3
20260508172027 11 293 4.8 8.0 0.00 0.15 0.15 77 1042.3
20260508171524 10 278 3.2 4.8 0.00 0.15 0.15 77 1042.3
20260508171020 10 281 6.4 8.0 0.00 0.15 0.15 77 1042.4
20260508170517 9 270 3.2 8.0 0.00 0.15 0.15 82 1042.6
20260508170015 10 225 3.2 12.9 0.00 0.15 0.15 75 1042.5
20260508165512 10 270 1.6 6.4 0.00 0.15 0.15 79 1042.7
20260508165009 9 242 8.0 9.7 0.00 0.15 0.15 78 1042.8
20260508164505 10 277 0.0 4.8 0.00 0.15 0.15 80 1042.7
20260508164002 10 255 3.2 3.2 0.00 0.15 0.15 84 1042.7
20260508163500 10 295 8.0 8.0 0.00 0.15 0.15 82 1042.5
20260508162955 10 135 3.2 4.8 0.00 0.15 0.15 78 1042.8
20260508162453 10 259 8.0 11.3 0.00 0.15 0.15 80 1042.8
20260508161949 8 251 3.2 9.7 0.00 0.15 0.15 84 1042.9
20260508161447 9 291 8.0 8.0 0.00 0.15 0.15 85 1042.8
20260508160944 8 239 8.0 11.3 0.00 0.15 0.15 83 1042.9
20260508160443 8 237 6.4 6.4 0.00 0.15 0.15 89 1042.8
20260508155938 8 278 1.6 3.2 0.00 0.15 0.15 89 1042.9
20260508155436 7 291 0.0 6.4 0.00 0.15 0.15 89 1042.8
20260508154932 7 279 3.2 3.2 0.00 0.15 0.15 90 1043.0
20260508154430 6 244 4.8 8.0 0.00 0.15 0.15 92 1043.2
20260508153926 6 291 0.0 8.0 0.00 0.15 0.15 95 1043.0
20260508153424 6 270 0.0 3.2 0.00 0.15 0.15 97 1043.2
20260508152920 5 229 4.8 4.8 0.00 0.15 0.15 96 1043.1
20260508152417 5 267 6.4 8.0 0.00 0.15 0.15 96 1043.1
20260508151913 5 231 4.8 8.0 0.00 0.15 0.15 97 1043.1
20260508151410 5 270 1.6 6.4 0.00 0.15 0.15 97 1043.2
20260508150906 5 275 3.2 3.2 0.00 0.15 0.15 98 1042.9
20260508150403 5 277 1.6 3.2 0.00 0.15 0.15 99 1042.8
20260508145859 4 270 1.6 4.8 0.00 0.15 0.15 98 1043.0
20260508145355 4 265 3.2 6.4 0.00 0.15 0.15 99 1043.1
20260508144852 4 263 6.4 6.4 0.00 0.15 0.15 99 1042.9
20260508144350 4 270 3.2 3.2 0.00 0.15 0.15 99 1042.7
20260508143847 3 257 4.8 6.4 0.00 0.15 0.15 99 1043.0
20260508143344 3 274 3.2 8.0 0.00 0.15 0.15 99 1043.0
20260508142841 3 256 4.8 8.0 0.00 0.15 0.15 99 1043.1
20260508142338 4 291 1.6 4.8 0.00 0.15 0.15 99 1043.3
20260508141834 4 261 3.2 8.0 0.00 0.15 0.15 99 1043.2
20260508141331 4 270 1.6 4.8 0.00 0.15 0.15 99 1042.7
20260508140829 5 265 3.2 3.2 0.00 0.15 0.15 99 1042.6
20260508140326 4 251 1.6 4.8 0.00 0.15 0.15 99 1042.7
20260508135821 4 258 0.0 3.2 0.05 0.15 0.15 99 1042.8